STARLINK-5484 (55628 NORAD) Tracking and Keplerian Element Data

This shows tracking and keplerian element data for the satellite.

Feedback or suggestion? Click here.




ElementValue
Catalog55628
NameSTARLINK-5484
Epoch Orbit641
Epoch Day84.33128448
Epoch Year2023
RAAN50.7116
Inclination70.0009
Eccentricity0.0002864
Argument of Perigee291.2668
Mean Anonmoly68.8212
Mean Motion15.50917829
Decay Rate-0.00102246
L11 55628U 23021A 23084.33128448 -.00102246 00000+0 -17798-2 0 9994
L22 55628 70.0009 50.7116 0002864 291.2668 68.8212 15.50917829 6413



Live tracking and technical data element details for STARLINK-5484 (NORAD 55628). STARLINK-5484 can be tracked NOW for your location showing map with azimuth and elevation plus other details from your city location.







IsCatalogInMostPopularTable: catalog: 55628, numindb: 4
Update: records affected: 1



GetName: 55628 STARLINK-5484

Hit Count: updated at: Tue, 28 Mar 2023 01:45:57 GMT